Data supplied by UK-AIR on 25/3/2020
All Data GMT hour ending 
Status: R =Ratified P=Provisional,P*=As supplied
,,Inverness,,,,,,,,,,,,,,,,,,,,,,,
Date,time,"PM<sub>10</sub> particulate matter (Hourly measured)",status,unit,"Nitric oxide",status,unit,"Nitrogen dioxide",status,unit,"Nitrogen oxides as nitrogen dioxide",status,unit,"PM<sub>2.5</sub> particulate matter (Hourly measured)",status,unit
 
01-01-2019,01:00,12.000,R,ugm-3 (FIDAS),1.22555,R,ugm-3,1.80854,R,ugm-3,3.68770,R,ugm-3,6.486,R,ugm-3 (Ref.eq)
01-01-2019,02:00,12.800,R,ugm-3 (FIDAS),1.27269,R,ugm-3,1.44704,R,ugm-3,3.39847,R,ugm-3,6.486,R,ugm-3 (Ref.eq)
01-01-2019,03:00,9.400,R,ugm-3 (FIDAS),3.18172,R,ugm-3,5.31683,R,ugm-3,10.19539,R,ugm-3,5.094,R,ugm-3 (Ref.eq)
01-01-2019,04:00,8.325,R,ugm-3 (FIDAS),2.08579,R,ugm-3,4.44838,R,ugm-3,7.64654,R,ugm-3,4.505,R,ugm-3 (Ref.eq)
01-01-2019,05:00,8.250,R,ugm-3 (FIDAS),2.47467,R,ugm-3,2.82172,R,ugm-3,6.61616,R,ugm-3,4.434,R,ugm-3 (Ref.eq)
01-01-2019,06:00,9.775,R,ugm-3 (FIDAS),0.95452,R,ugm-3,2.00720,R,ugm-3,3.47077,R,ugm-3,5.047,R,ugm-3 (Ref.eq)
01-01-2019,07:00,8.300,R,ugm-3 (FIDAS),0.49493,R,ugm-3,2.11535,R,ugm-3,2.87423,R,ugm-3,4.363,R,ugm-3 (Ref.eq)
01-01-2019,08:00,5.675,R,ugm-3 (FIDAS),0.67170,R,ugm-3,2.44085,R,ugm-3,3.47077,R,ugm-3,2.925,R,ugm-3 (Ref.eq)
01-01-2019,09:00,6.325,R,ugm-3 (FIDAS),0.42423,R,ugm-3,3.57953,R,ugm-3,4.23000,R,ugm-3,3.090,R,ugm-3 (Ref.eq)
01-01-2019,10:00,10.200,R,ugm-3 (FIDAS),6.29273,R,ugm-3,21.15439,R,ugm-3,30.80310,R,ugm-3,4.882,R,ugm-3 (Ref.eq)
01-01-2019,11:00,13.525,R,ugm-3 (FIDAS),0.98987,R,ugm-3,5.91185,R,ugm-3,7.42962,R,ugm-3,6.297,R,ugm-3 (Ref.eq)
01-01-2019,12:00,14.650,R,ugm-3 (FIDAS),0.49493,R,ugm-3,2.60342,R,ugm-3,3.36231,R,ugm-3,6.250,R,ugm-3 (Ref.eq)
01-01-2019,13:00,12.650,R,ugm-3 (FIDAS),0.56564,R,ugm-3,2.54924,R,ugm-3,3.41654,R,ugm-3,5.991,R,ugm-3 (Ref.eq)
01-01-2019,14:00,13.725,R,ugm-3 (FIDAS),1.62621,R,ugm-3,5.26152,R,ugm-3,7.75501,R,ugm-3,6.321,R,ugm-3 (Ref.eq)
01-01-2019,15:00,13.050,R,ugm-3 (FIDAS),1.73227,R,ugm-3,6.78006,R,ugm-3,9.43616,R,ugm-3,5.802,R,ugm-3 (Ref.eq)
01-01-2019,16:00,13.025,R,ugm-3 (FIDAS),0.67170,R,ugm-3,4.77278,R,ugm-3,5.80270,R,ugm-3,5.920,R,ugm-3 (Ref.eq)
01-01-2019,17:00,15.925,R,ugm-3 (FIDAS),1.13128,R,ugm-3,6.56272,R,ugm-3,8.29731,R,ugm-3,6.934,R,ugm-3 (Ref.eq)
01-01-2019,18:00,17.675,R,ugm-3 (FIDAS),0.84846,R,ugm-3,7.32175,R,ugm-3,8.62270,R,ugm-3,7.807,R,ugm-3 (Ref.eq)
01-01-2019,19:00,17.075,R,ugm-3 (FIDAS),1.27269,R,ugm-3,7.91858,R,ugm-3,9.87001,R,ugm-3,7.665,R,ugm-3 (Ref.eq)
01-01-2019,20:00,15.250,R,ugm-3 (FIDAS),1.37874,R,ugm-3,5.80366,R,ugm-3,7.91770,R,ugm-3,6.934,R,ugm-3 (Ref.eq)
01-01-2019,21:00,19.250,R,ugm-3 (FIDAS),1.44945,R,ugm-3,9.59986,R,ugm-3,11.82232,R,ugm-3,9.057,R,ugm-3 (Ref.eq)
01-01-2019,22:00,17.825,R,ugm-3 (FIDAS),2.12115,R,ugm-3,11.71533,R,ugm-3,14.96771,R,ugm-3,8.656,R,ugm-3 (Ref.eq)
01-01-2019,23:00,15.375,R,ugm-3 (FIDAS),1.23733,R,ugm-3,7.15933,R,ugm-3,9.05655,R,ugm-3,7.359,R,ugm-3 (Ref.eq)
01-01-2019,24:00,15.050,R,ugm-3 (FIDAS),0.81311,R,ugm-3,4.77288,R,ugm-3,6.01962,R,ugm-3,6.910,R,ugm-3 (Ref.eq)
02-01-2019,01:00,14.725,R,ugm-3 (FIDAS),0.61394,R,ugm-3,4.34625,R,ugm-3,5.28762,R,ugm-3,6.651,R,ugm-3 (Ref.eq)
02-01-2019,02:00,14.825,R,ugm-3 (FIDAS),1.41679,R,ugm-3,10.79314,R,ugm-3,12.96553,R,ugm-3,6.745,R,ugm-3 (Ref.eq)
02-01-2019,03:00,12.300,R,ugm-3 (FIDAS),0.81466,R,ugm-3,6.35636,R,ugm-3,7.60548,R,ugm-3,5.778,R,ugm-3 (Ref.eq)
02-01-2019,04:00,11.250,R,ugm-3 (FIDAS),0.77924,R,ugm-3,4.34632,R,ugm-3,5.54113,R,ugm-3,5.142,R,ugm-3 (Ref.eq)
02-01-2019,05:00,11.025,R,ugm-3 (FIDAS),0.31878,R,ugm-3,2.33611,R,ugm-3,2.82489,R,ugm-3,4.835,R,ugm-3 (Ref.eq)
02-01-2019,06:00,12.500,R,ugm-3 (FIDAS),0.21252,R,ugm-3,2.28174,R,ugm-3,2.60759,R,ugm-3,5.047,R,ugm-3 (Ref.eq)
02-01-2019,07:00,11.400,R,ugm-3 (FIDAS),1.84183,R,ugm-3,7.06302,R,ugm-3,9.88712,R,ugm-3,4.764,R,ugm-3 (Ref.eq)
02-01-2019,08:00,12.550,R,ugm-3 (FIDAS),4.60457,R,ugm-3,16.40808,R,ugm-3,23.46833,R,ugm-3,4.976,R,ugm-3 (Ref.eq)
02-01-2019,09:00,13.300,R,ugm-3 (FIDAS),6.72976,R,ugm-3,24.17745,R,ugm-3,34.49627,R,ugm-3,5.212,R,ugm-3 (Ref.eq)
02-01-2019,10:00,17.050,R,ugm-3 (FIDAS),21.96027,R,ugm-3,28.14972,R,ugm-3,61.82166,R,ugm-3,10.000,R,ugm-3 (Ref.eq)
02-01-2019,11:00,16.175,R,ugm-3 (FIDAS),28.58377,R,ugm-3,35.86670,R,ugm-3,79.69454,R,ugm-3,8.420,R,ugm-3 (Ref.eq)
02-01-2019,12:00,15.250,R,ugm-3 (FIDAS),32.12575,R,ugm-3,29.13194,R,ugm-3,78.39074,R,ugm-3,8.208,R,ugm-3 (Ref.eq)
02-01-2019,13:00,15.525,R,ugm-3 (FIDAS),21.28729,R,ugm-3,26.95428,R,ugm-3,59.59435,R,ugm-3,6.981,R,ugm-3 (Ref.eq)
02-01-2019,14:00,17.850,R,ugm-3 (FIDAS),7.75693,R,ugm-3,15.54024,R,ugm-3,27.43404,R,ugm-3,7.382,R,ugm-3 (Ref.eq)
02-01-2019,15:00,37.100,R,ugm-3 (FIDAS),67.15592,R,ugm-3,61.85058,R,ugm-3,164.82155,R,ugm-3,11.722,R,ugm-3 (Ref.eq)
02-01-2019,16:00,23.800,R,ugm-3 (FIDAS),44.77061,R,ugm-3,54.77871,R,ugm-3,123.42603,R,ugm-3,12.547,R,ugm-3 (Ref.eq)
02-01-2019,17:00,21.525,R,ugm-3 (FIDAS),44.73519,R,ugm-3,52.17110,R,ugm-3,120.76411,R,ugm-3,13.821,R,ugm-3 (Ref.eq)
02-01-2019,18:00,24.500,R,ugm-3 (FIDAS),20.08302,R,ugm-3,48.90100,R,ugm-3,79.69454,R,ugm-3,16.439,R,ugm-3 (Ref.eq)
02-01-2019,19:00,28.175,R,ugm-3 (FIDAS),49.55228,R,ugm-3,63.74437,R,ugm-3,139.72348,R,ugm-3,20.094,R,ugm-3 (Ref.eq)
02-01-2019,20:00,20.250,R,ugm-3 (FIDAS),21.18103,R,ugm-3,40.42680,R,ugm-3,72.90393,R,ugm-3,13.420,R,ugm-3 (Ref.eq)
02-01-2019,21:00,17.325,R,ugm-3 (FIDAS),14.02624,R,ugm-3,20.70380,R,ugm-3,42.21040,R,ugm-3,11.486,R,ugm-3 (Ref.eq)
02-01-2019,22:00,15.975,R,ugm-3 (FIDAS),9.24457,R,ugm-3,22.60311,R,ugm-3,36.77791,R,ugm-3,10.755,R,ugm-3 (Ref.eq)
02-01-2019,23:00,17.450,R,ugm-3 (FIDAS),8.99663,R,ugm-3,24.12410,R,ugm-3,37.91874,R,ugm-3,11.934,R,ugm-3 (Ref.eq)
02-01-2019,24:00,17.275,R,ugm-3 (FIDAS),5.20671,R,ugm-3,23.47057,R,ugm-3,31.45408,R,ugm-3,11.910,R,ugm-3 (Ref.eq)
03-01-2019,01:00,13.700,R,ugm-3 (FIDAS),1.23022,R,ugm-3,6.60303,R,ugm-3,8.48934,R,ugm-3,8.821,R,ugm-3 (Ref.eq)
03-01-2019,02:00,12.800,R,ugm-3 (FIDAS),0.56780,R,ugm-3,5.65966,R,ugm-3,6.53026,R,ugm-3,8.278,R,ugm-3 (Ref.eq)
03-01-2019,03:00,12.675,R,ugm-3 (FIDAS),0.35487,R,ugm-3,4.13589,R,ugm-3,4.68002,R,ugm-3,,,
03-01-2019,04:00,9.467,R,ugm-3 (FIDAS),1.06462,R,ugm-3,5.22439,R,ugm-3,6.85678,R,ugm-3,,,
03-01-2019,05:00,,,,1.24205,R,ugm-3,5.55093,R,ugm-3,7.45538,R,ugm-3,,,
03-01-2019,06:00,,,,2.02277,R,ugm-3,8.76178,R,ugm-3,11.86331,R,ugm-3,,,
03-01-2019,07:00,,,,7.13292,R,ugm-3,17.46965,R,ugm-3,28.40664,R,ugm-3,,,
03-01-2019,08:00,,,,3.47774,R,ugm-3,13.44204,R,ugm-3,18.77451,R,ugm-3,,,
03-01-2019,09:00,,,,10.85908,R,ugm-3,28.08195,R,ugm-3,44.73230,R,ugm-3,,,
03-01-2019,10:00,,,,6.10379,R,ugm-3,25.84998,R,ugm-3,35.20900,R,ugm-3,,,
03-01-2019,11:00,,,,4.11651,R,ugm-3,17.95891,R,ugm-3,24.27081,R,ugm-3,,,
03-01-2019,12:00,,,,14.33682,R,ugm-3,28.13695,R,ugm-3,50.11977,R,ugm-3,,,
03-01-2019,13:00,,,,41.23609,R,ugm-3,33.90986,R,ugm-3,97.13766,R,ugm-3,,,
03-01-2019,14:00,,,,40.70379,R,ugm-3,39.18840,R,ugm-3,101.60001,R,ugm-3,,,
03-01-2019,15:00,,,,35.70010,R,ugm-3,32.33079,R,ugm-3,87.07017,R,ugm-3,,,
03-01-2019,16:00,,,,19.63624,R,ugm-3,22.56898,R,ugm-3,52.67745,R,ugm-3,,,
03-01-2019,17:00,,,,33.18051,R,ugm-3,37.06481,R,ugm-3,87.94087,R,ugm-3,,,
03-01-2019,18:00,,,,24.55712,R,ugm-3,30.26100,R,ugm-3,67.91473,R,ugm-3,,,
03-01-2019,19:00,,,,22.53435,R,ugm-3,21.33597,R,ugm-3,55.88817,R,ugm-3,,,
03-01-2019,20:00,,,,13.20123,R,ugm-3,17.14416,R,ugm-3,37.38576,R,ugm-3,,,
03-01-2019,21:00,,,,19.19856,R,ugm-3,18.94098,R,ugm-3,48.37837,R,ugm-3,,,
03-01-2019,22:00,,,,4.71979,R,ugm-3,8.97990,R,ugm-3,16.21682,R,ugm-3,,,
03-01-2019,23:00,,,,3.86810,R,ugm-3,4.68067,R,ugm-3,10.61168,R,ugm-3,,,
03-01-2019,24:00,,,,1.98728,R,ugm-3,4.40826,R,ugm-3,7.45538,R,ugm-3,,,
04-01-2019,01:00,,,,1.18240,R,ugm-3,4.06205,R,ugm-3,5.87503,R,ugm-3,,,
04-01-2019,02:00,,,,0.42566,R,ugm-3,1.74086,R,ugm-3,2.39353,R,ugm-3,,,
04-01-2019,03:00,,,,0.81585,R,ugm-3,1.84975,R,ugm-3,3.10071,R,ugm-3,,,
04-01-2019,04:00,,,,0.70944,R,ugm-3,1.79533,R,ugm-3,2.88312,R,ugm-3,,,
04-01-2019,05:00,,,,0.92227,R,ugm-3,1.63219,R,ugm-3,3.04631,R,ugm-3,,,
04-01-2019,06:00,,,,2.66039,R,ugm-3,2.82939,R,ugm-3,6.90860,R,ugm-3,,,
04-01-2019,07:00,,,,2.66039,R,ugm-3,3.91736,R,ugm-3,7.99657,R,ugm-3,,,
04-01-2019,08:00,,,,9.79024,R,ugm-3,11.53495,R,ugm-3,26.54644,R,ugm-3,,,
04-01-2019,09:00,,,,11.63477,R,ugm-3,17.08406,R,ugm-3,34.92379,R,ugm-3,,,
04-01-2019,10:00,,,,10.57062,R,ugm-3,12.78631,R,ugm-3,28.99436,R,ugm-3,,,
04-01-2019,11:00,,,,19.22575,R,ugm-3,17.68437,R,ugm-3,47.16344,R,ugm-3,,,
04-01-2019,12:00,,,,27.95183,R,ugm-3,29.43664,R,ugm-3,72.29552,R,ugm-3,,,
04-01-2019,13:00,,,,26.03635,R,ugm-3,19.10045,R,ugm-3,59.02230,R,ugm-3,,,
04-01-2019,14:00,,,,28.30655,R,ugm-3,29.87192,R,ugm-3,73.27469,R,ugm-3,,,
04-01-2019,15:00,,,,33.80469,R,ugm-3,36.72751,R,ugm-3,88.56065,R,ugm-3,,,
04-01-2019,16:00,,,,51.43421,R,ugm-3,47.55727,R,ugm-3,126.42196,R,ugm-3,,,
04-01-2019,17:00,,,,48.66740,R,ugm-3,43.25909,R,ugm-3,117.88140,R,ugm-3,,,
04-01-2019,18:00,,,,34.86885,R,ugm-3,36.23820,R,ugm-3,89.70302,R,ugm-3,,,
04-01-2019,19:00,,,,15.92687,R,ugm-3,17.46594,R,ugm-3,41.88679,R,ugm-3,,,
04-01-2019,20:00,,,,10.99628,R,ugm-3,16.70311,R,ugm-3,33.56383,R,ugm-3,,,
04-01-2019,21:00,,,,7.52004,R,ugm-3,14.68948,R,ugm-3,26.22004,R,ugm-3,,,
04-01-2019,22:00,,,,5.64003,R,ugm-3,10.98991,R,ugm-3,19.63784,R,ugm-3,,,
04-01-2019,23:00,,,,4.07927,R,ugm-3,9.03118,R,ugm-3,15.28596,R,ugm-3,,,
04-01-2019,24:00,,,,3.33436,R,ugm-3,4.02633,R,ugm-3,9.13894,R,ugm-3,,,
05-01-2019,01:00,,,,1.84374,R,ugm-3,4.56838,R,ugm-3,7.39541,R,ugm-3,,,
05-01-2019,02:00,,,,1.37099,R,ugm-3,3.26315,R,ugm-3,5.36530,R,ugm-3,,,
05-01-2019,03:00,,,,0.49639,R,ugm-3,1.90340,R,ugm-3,2.66452,R,ugm-3,,,
05-01-2019,04:00,,,,0.49639,R,ugm-3,1.79464,R,ugm-3,2.55577,R,ugm-3,,,
05-01-2019,05:00,,,,0.81550,R,ugm-3,1.84913,R,ugm-3,3.09955,R,ugm-3,,,
05-01-2019,06:00,,,,0.92187,R,ugm-3,2.22981,R,ugm-3,3.64333,R,ugm-3,,,
05-01-2019,07:00,,,,2.90744,R,ugm-3,4.07934,R,ugm-3,8.53735,R,ugm-3,,,
05-01-2019,08:00,,,,3.26200,R,ugm-3,5.81955,R,ugm-3,10.82122,R,ugm-3,,,
05-01-2019,09:00,,,,9.14779,R,ugm-3,11.20497,R,ugm-3,25.23140,R,ugm-3,,,
05-01-2019,10:00,,,,9.99875,R,ugm-3,15.01172,R,ugm-3,30.34293,R,ugm-3,,,
05-01-2019,11:00,,,,13.86352,R,ugm-3,9.84713,R,ugm-3,31.10422,R,ugm-3,,,
05-01-2019,12:00,,,,14.78539,R,ugm-3,17.18847,R,ugm-3,39.85908,R,ugm-3,,,
05-01-2019,13:00,,,,15.99091,R,ugm-3,18.43957,R,ugm-3,42.95863,R,ugm-3,,,
05-01-2019,14:00,,,,17.58646,R,ugm-3,14.47052,R,ugm-3,41.43604,R,ugm-3,,,
05-01-2019,15:00,,,,19.35928,R,ugm-3,18.27758,R,ugm-3,47.96140,R,ugm-3,,,
05-01-2019,16:00,,,,20.99029,R,ugm-3,24.47723,R,ugm-3,56.66188,R,ugm-3,,,
05-01-2019,17:00,,,,24.42957,R,ugm-3,24.26088,R,ugm-3,61.71904,R,ugm-3,,,
05-01-2019,18:00,,,,15.21087,R,ugm-3,18.05866,R,ugm-3,41.38166,R,ugm-3,,,
05-01-2019,19:00,,,,10.88517,R,ugm-3,11.96686,R,ugm-3,28.65721,R,ugm-3,,,
05-01-2019,20:00,,,,9.25416,R,ugm-3,11.15063,R,ugm-3,25.34015,R,ugm-3,,,
05-01-2019,21:00,,,,5.67305,R,ugm-3,9.30056,R,ugm-3,17.99912,R,ugm-3,,,
05-01-2019,22:00,,,,3.19109,R,ugm-3,5.05824,R,ugm-3,9.95118,R,ugm-3,,,
05-01-2019,23:00,,,,2.19831,R,ugm-3,3.48094,R,ugm-3,6.85163,R,ugm-3,,,
05-01-2019,24:00,,,,1.17007,R,ugm-3,2.88243,R,ugm-3,4.67651,R,ugm-3,,,
06-01-2019,01:00,,,,1.41765,R,ugm-3,2.75472,R,ugm-3,4.92842,R,ugm-3,,,
06-01-2019,02:00,,,,0.70883,R,ugm-3,2.31956,R,ugm-3,3.40641,R,ugm-3,,,
06-01-2019,03:00,,,,0.53162,R,ugm-3,1.68531,R,ugm-3,2.50045,R,ugm-3,,,
06-01-2019,04:00,,,,0.49618,R,ugm-3,1.79401,R,ugm-3,2.55481,R,ugm-3,,,
06-01-2019,05:00,,,,0.28353,R,ugm-3,1.84828,R,ugm-3,2.28302,R,ugm-3,,,
06-01-2019,06:00,,,,0.70883,R,ugm-3,2.88125,R,ugm-3,3.96810,R,ugm-3,,,
06-01-2019,07:00,,,,1.63030,R,ugm-3,9.51327,R,ugm-3,12.01303,R,ugm-3,,,
06-01-2019,08:00,,,,8.57679,R,ugm-3,24.89942,R,ugm-3,38.05031,R,ugm-3,,,
06-01-2019,09:00,,,,16.37386,R,ugm-3,44.79761,R,ugm-3,69.90385,R,ugm-3,,,
06-01-2019,10:00,,,,28.74286,R,ugm-3,38.06254,R,ugm-3,82.13431,R,ugm-3,,,
06-01-2019,11:00,,,,66.66501,R,ugm-3,52.10292,R,ugm-3,154.32118,R,ugm-3,,,
06-01-2019,12:00,,,,24.24182,R,ugm-3,40.83286,R,ugm-3,78.00313,R,ugm-3,,,
06-01-2019,13:00,,,,7.40722,R,ugm-3,31.04133,R,ugm-3,42.39891,R,ugm-3,,,
06-01-2019,14:00,,,,3.93398,R,ugm-3,23.32108,R,ugm-3,29.35309,R,ugm-3,,,
06-01-2019,15:00,,,,9.39194,R,ugm-3,39.68503,R,ugm-3,54.08580,R,ugm-3,,,
06-01-2019,16:00,,,,6.02501,R,ugm-3,36.74829,R,ugm-3,45.98652,R,ugm-3,,,
06-01-2019,17:00,,,,5.20987,R,ugm-3,39.52018,R,ugm-3,47.50853,R,ugm-3,,,
06-01-2019,18:00,,,,1.66574,R,ugm-3,22.23296,R,ugm-3,24.78706,R,ugm-3,,,
06-01-2019,19:00,,,,3.75677,R,ugm-3,27.61525,R,ugm-3,33.37556,R,ugm-3,,,
06-01-2019,20:00,,,,18.50034,R,ugm-3,42.84165,R,ugm-3,71.20843,R,ugm-3,,,
06-01-2019,21:00,,,,25.87212,R,ugm-3,52.13993,R,ugm-3,91.80996,R,ugm-3,,,
06-01-2019,22:00,,,,12.86518,R,ugm-3,30.01086,R,ugm-3,49.73719,R,ugm-3,,,
06-01-2019,23:00,,,,4.99722,R,ugm-3,16.03761,R,ugm-3,23.69991,R,ugm-3,,,
06-01-2019,24:00,,,,1.87839,R,ugm-3,5.92578,R,ugm-3,8.80593,R,ugm-3,,,
07-01-2019,01:00,,,,0.75575,R,ugm-3,2.82592,R,ugm-3,3.98472,R,ugm-3,,,
07-01-2019,02:00,,,,0.47235,R,ugm-3,1.66658,R,ugm-3,2.39084,R,ugm-3,,,
07-01-2019,03:00,,,,0.14171,R,ugm-3,1.35850,R,ugm-3,1.57578,R,ugm-3,,,
07-01-2019,04:00,,,,0.31883,R,ugm-3,0.65221,R,ugm-3,1.14108,R,ugm-3,,,
07-01-2019,05:00,,,,0.42511,R,ugm-3,0.54359,R,ugm-3,1.19542,R,ugm-3,,,
07-01-2019,06:00,,,,0.74395,R,ugm-3,0.65243,R,ugm-3,1.79313,R,ugm-3,,,
07-01-2019,07:00,,,,4.10941,R,ugm-3,2.71896,R,ugm-3,9.01997,R,ugm-3,,,
07-01-2019,08:00,,,,7.19147,R,ugm-3,11.63183,R,ugm-3,22.65859,R,ugm-3,,,
07-01-2019,09:00,,,,12.85962,R,ugm-3,8.91787,R,ugm-3,28.63568,R,ugm-3,,,
07-01-2019,10:00,,,,8.11254,R,ugm-3,8.15472,R,ugm-3,20.59378,R,ugm-3,,,
07-01-2019,11:00,,,,11.69057,R,ugm-3,10.11269,R,ugm-3,28.03797,R,ugm-3,,,
07-01-2019,12:00,,,,9.84842,R,ugm-3,12.17656,R,ugm-3,27.27725,R,ugm-3,,,
07-01-2019,13:00,,,,12.25738,R,ugm-3,8.42853,R,ugm-3,27.22292,R,ugm-3,,,
07-01-2019,14:00,,,,13.49729,R,ugm-3,9.89627,R,ugm-3,30.59182,R,ugm-3,,,
07-01-2019,15:00,,,,7.68743,R,ugm-3,7.33945,R,ugm-3,19.12668,R,ugm-3,,,
07-01-2019,16:00,,,,10.45066,R,ugm-3,10.92711,R,ugm-3,26.95123,R,ugm-3,,,
07-01-2019,17:00,,,,13.35559,R,ugm-3,12.23269,R,ugm-3,32.71097,R,ugm-3,,,
07-01-2019,18:00,,,,14.56007,R,ugm-3,13.48306,R,ugm-3,35.80819,R,ugm-3,,,
07-01-2019,19:00,,,,10.20268,R,ugm-3,11.09000,R,ugm-3,26.73388,R,ugm-3,,,
07-01-2019,20:00,,,,6.37667,R,ugm-3,8.04516,R,ugm-3,17.82259,R,ugm-3,,,
07-01-2019,21:00,,,,4.14484,R,ugm-3,5.59885,R,ugm-3,11.95418,R,ugm-3,,,
07-01-2019,22:00,,,,1.77130,R,ugm-3,3.31547,R,ugm-3,6.03142,R,ugm-3,,,
07-01-2019,23:00,,,,1.27533,R,ugm-3,2.17414,R,ugm-3,4.12963,R,ugm-3,,,
07-01-2019,24:00,,,,0.38969,R,ugm-3,1.35863,R,ugm-3,1.95614,R,ugm-3,,,
08-01-2019,01:00,,,,0.33050,R,ugm-3,0.57958,R,ugm-3,1.08633,R,ugm-3,,,
08-01-2019,02:00,,,,0.75543,R,ugm-3,0.57983,R,ugm-3,1.73814,R,ugm-3,,,
08-01-2019,03:00,,,,0.35411,R,ugm-3,1.03223,R,ugm-3,1.57519,R,ugm-3,,,
08-01-2019,04:00,,,,0.77904,R,ugm-3,1.14112,R,ugm-3,2.33562,R,ugm-3,,,
08-01-2019,05:00,,,,1.59348,R,ugm-3,2.01067,R,ugm-3,4.45397,R,ugm-3,,,
08-01-2019,06:00,,,,3.39942,R,ugm-3,7.28047,R,ugm-3,12.49285,R,ugm-3,,,
08-01-2019,07:00,,,,11.26059,R,ugm-3,27.87121,R,ugm-3,45.13721,R,ugm-3,,,
08-01-2019,08:00,,,,20.00702,R,ugm-3,33.14516,R,ugm-3,63.82216,R,ugm-3,,,
08-01-2019,09:00,,,,20.89229,R,ugm-3,34.77519,R,ugm-3,66.80958,R,ugm-3,,,
08-01-2019,10:00,,,,58.17970,R,ugm-3,66.73571,R,ugm-3,155.94334,R,ugm-3,,,
08-01-2019,11:00,,,,64.16410,R,ugm-3,69.83534,R,ugm-3,168.21892,R,ugm-3,,,
08-01-2019,12:00,,,,38.13727,R,ugm-3,49.23375,R,ugm-3,107.71008,R,ugm-3,,,
08-01-2019,13:00,,,,27.69113,R,ugm-3,34.77925,R,ugm-3,77.23840,R,ugm-3,,,
08-01-2019,14:00,,,,31.09055,R,ugm-3,42.54858,R,ugm-3,90.22010,R,ugm-3,,,
08-01-2019,15:00,,,,20.92770,R,ugm-3,30.48419,R,ugm-3,62.57288,R,ugm-3,,,
08-01-2019,16:00,,,,18.16567,R,ugm-3,40.25955,R,ugm-3,68.11319,R,ugm-3,,,
08-01-2019,17:00,,,,13.98721,R,ugm-3,40.14842,R,ugm-3,61.59518,R,ugm-3,,,
08-01-2019,18:00,,,,9.98580,R,ugm-3,28.90247,R,ugm-3,44.21382,R,ugm-3,,,
08-01-2019,19:00,,,,17.03252,R,ugm-3,43.24630,R,ugm-3,69.36247,R,ugm-3,,,
08-01-2019,20:00,,,,7.68411,R,ugm-3,35.52773,R,ugm-3,47.30988,R,ugm-3,,,
08-01-2019,21:00,,,,0.88527,R,ugm-3,14.93763,R,ugm-3,16.29502,R,ugm-3,,,
08-01-2019,22:00,,,,5.16996,R,ugm-3,21.89273,R,ugm-3,29.81989,R,ugm-3,,,
08-01-2019,23:00,,,,4.92208,R,ugm-3,18.19905,R,ugm-3,25.74613,R,ugm-3,,,
08-01-2019,24:00,,,,0.56657,R,ugm-3,6.51835,R,ugm-3,7.38708,R,ugm-3,,,
09-01-2019,01:00,,,,2.35969,R,ugm-3,16.07332,R,ugm-3,19.69146,R,ugm-3,,,
09-01-2019,02:00,,,,5.00254,R,ugm-3,27.58595,R,ugm-3,35.25640,R,ugm-3,,,
09-01-2019,03:00,,,,2.08833,R,ugm-3,21.55706,R,ugm-3,24.75912,R,ugm-3,,,
09-01-2019,04:00,,,,1.52200,R,ugm-3,14.11808,R,ugm-3,16.45178,R,ugm-3,,,
09-01-2019,05:00,,,,3.57493,R,ugm-3,14.66245,R,ugm-3,20.14393,R,ugm-3,,,
09-01-2019,06:00,,,,13.94577,R,ugm-3,24.71435,R,ugm-3,46.09757,R,ugm-3,,,
09-01-2019,07:00,,,,51.96037,R,ugm-3,42.44094,R,ugm-3,122.11240,R,ugm-3,,,
09-01-2019,08:00,,,,140.48414,R,ugm-3,64.27428,R,ugm-3,279.68029,R,ugm-3,,,
09-01-2019,09:00,,,,199.48818,R,ugm-3,71.37314,R,ugm-3,377.25075,R,ugm-3,,,
09-01-2019,10:00,,,,269.21702,R,ugm-3,87.54681,R,ugm-3,500.34049,R,ugm-3,,,
09-01-2019,11:00,,,,142.39549,R,ugm-3,61.07211,R,ugm-3,279.40881,R,ugm-3,,,
09-01-2019,12:00,,,,29.27195,R,ugm-3,20.48972,R,ugm-3,65.37276,R,ugm-3,,,
09-01-2019,13:00,,,,46.86344,R,ugm-3,37.44220,R,ugm-3,109.29847,R,ugm-3,,,
09-01-2019,14:00,,,,34.75823,R,ugm-3,23.47977,R,ugm-3,76.77498,R,ugm-3,,,
09-01-2019,15:00,,,,26.75888,R,ugm-3,21.08526,R,ugm-3,62.11498,R,ugm-3,,,
09-01-2019,16:00,,,,30.47539,R,ugm-3,24.56277,R,ugm-3,71.29105,R,ugm-3,,,
09-01-2019,17:00,,,,36.28023,R,ugm-3,30.97370,R,ugm-3,86.60261,R,ugm-3,,,
09-01-2019,18:00,,,,21.90972,R,ugm-3,24.99128,R,ugm-3,58.58572,R,ugm-3,,,
09-01-2019,19:00,,,,16.35265,R,ugm-3,20.48089,R,ugm-3,45.55460,R,ugm-3,,,
09-01-2019,20:00,,,,9.62754,R,ugm-3,13.79784,R,ugm-3,28.55986,R,ugm-3,,,
09-01-2019,21:00,,,,9.48595,R,ugm-3,10.21419,R,ugm-3,24.75912,R,ugm-3,,,
09-01-2019,22:00,,,,3.07940,R,ugm-3,5.21455,R,ugm-3,9.93623,R,ugm-3,,,
09-01-2019,23:00,,,,3.53953,R,ugm-3,4.72620,R,ugm-3,10.15341,R,ugm-3,,,
09-01-2019,24:00,,,,1.80516,R,ugm-3,3.25901,R,ugm-3,6.02689,R,ugm-3,,,
10-01-2019,01:00,,,,0.70760,R,ugm-3,1.73737,R,ugm-3,2.82235,R,ugm-3,,,
10-01-2019,02:00,,,,0.61325,R,ugm-3,1.15836,R,ugm-3,2.09867,R,ugm-3,,,
10-01-2019,03:00,,,,0.45994,R,ugm-3,1.46580,R,ugm-3,2.17104,R,ugm-3,,,
10-01-2019,04:00,,,,0.63684,R,ugm-3,1.79159,R,ugm-3,2.76807,R,ugm-3,,,
10-01-2019,05:00,,,,0.28304,R,ugm-3,1.62849,R,ugm-3,2.06248,R,ugm-3,,,
10-01-2019,06:00,,,,1.80438,R,ugm-3,3.36649,R,ugm-3,6.13318,R,ugm-3,,,
10-01-2019,07:00,,,,5.02397,R,ugm-3,9.88208,R,ugm-3,17.58539,R,ugm-3,,,
10-01-2019,08:00,,,,28.58708,R,ugm-3,20.80967,R,ugm-3,64.64258,R,ugm-3,,,
10-01-2019,09:00,,,,41.64231,R,ugm-3,34.06304,R,ugm-3,97.91369,R,ugm-3,,,
10-01-2019,10:00,,,,41.35927,R,ugm-3,34.71413,R,ugm-3,98.13080,R,ugm-3,,,
10-01-2019,11:00,,,,32.23122,R,ugm-3,34.27290,R,ugm-3,83.69341,R,ugm-3,,,
10-01-2019,12:00,,,,52.00867,R,ugm-3,50.08241,R,ugm-3,129.82792,R,ugm-3,,,
10-01-2019,13:00,,,,88.23783,R,ugm-3,61.18258,R,ugm-3,196.47870,R,ugm-3,,,
10-01-2019,14:00,,,,36.86601,R,ugm-3,33.19095,R,ugm-3,89.71804,R,ugm-3,,,
10-01-2019,15:00,,,,31.94818,R,ugm-3,35.24965,R,ugm-3,84.23617,R,ugm-3,,,
10-01-2019,16:00,,,,33.08034,R,ugm-3,37.31300,R,ugm-3,88.03549,R,ugm-3,,,
10-01-2019,17:00,4.075,R,ugm-3 (FIDAS),24.97831,R,ugm-3,29.16538,R,ugm-3,67.46492,R,ugm-3,2.476,R,ugm-3 (Ref.eq)
10-01-2019,18:00,5.375,R,ugm-3 (FIDAS),34.21250,R,ugm-3,23.69063,R,ugm-3,76.14907,R,ugm-3,3.962,R,ugm-3 (Ref.eq)
10-01-2019,19:00,6.300,R,ugm-3 (FIDAS),17.51312,R,ugm-3,20.36694,R,ugm-3,47.22002,R,ugm-3,4.764,R,ugm-3 (Ref.eq)
10-01-2019,20:00,5.150,R,ugm-3 (FIDAS),21.01575,R,ugm-3,21.45515,R,ugm-3,53.67885,R,ugm-3,3.632,R,ugm-3 (Ref.eq)
10-01-2019,21:00,3.900,R,ugm-3 (FIDAS),8.80963,R,ugm-3,12.49024,R,ugm-3,25.99815,R,ugm-3,2.429,R,ugm-3 (Ref.eq)
10-01-2019,22:00,3.775,R,ugm-3 (FIDAS),3.71491,R,ugm-3,6.67879,R,ugm-3,12.37490,R,ugm-3,2.146,R,ugm-3 (Ref.eq)
10-01-2019,23:00,4.100,R,ugm-3 (FIDAS),3.00730,R,ugm-3,5.86411,R,ugm-3,10.47525,R,ugm-3,2.547,R,ugm-3 (Ref.eq)
10-01-2019,24:00,3.725,R,ugm-3 (FIDAS),1.73362,R,ugm-3,3.90920,R,ugm-3,6.56738,R,ugm-3,2.264,R,ugm-3 (Ref.eq)
11-01-2019,01:00,2.100,R,ugm-3 (FIDAS),1.50890,R,ugm-3,1.73747,R,ugm-3,4.05108,R,ugm-3,1.321,R,ugm-3 (Ref.eq)
11-01-2019,02:00,1.825,R,ugm-3 (FIDAS),0.14146,R,ugm-3,0.36182,R,ugm-3,0.57872,R,ugm-3,1.156,R,ugm-3 (Ref.eq)
11-01-2019,03:00,1.875,R,ugm-3 (FIDAS),0.28292,R,ugm-3,0.48854,R,ugm-3,0.92234,R,ugm-3,1.038,R,ugm-3 (Ref.eq)
11-01-2019,04:00,1.750,R,ugm-3 (FIDAS),0.42438,R,ugm-3,1.03122,R,ugm-3,1.68192,R,ugm-3,0.849,R,ugm-3 (Ref.eq)
11-01-2019,05:00,2.150,R,ugm-3 (FIDAS),0.35365,R,ugm-3,0.59711,R,ugm-3,1.13936,R,ugm-3,1.038,R,ugm-3 (Ref.eq)
11-01-2019,06:00,3.200,R,ugm-3 (FIDAS),1.48532,R,ugm-3,1.52042,R,ugm-3,3.79788,R,ugm-3,1.698,R,ugm-3 (Ref.eq)
11-01-2019,07:00,4.400,R,ugm-3 (FIDAS),6.86076,R,ugm-3,7.38462,R,ugm-3,17.90430,R,ugm-3,2.193,R,ugm-3 (Ref.eq)
11-01-2019,08:00,4.975,R,ugm-3 (FIDAS),23.65901,R,ugm-3,20.42031,R,ugm-3,56.69696,R,ugm-3,2.500,R,ugm-3 (Ref.eq)
11-01-2019,09:00,5.650,R,ugm-3 (FIDAS),37.34517,R,ugm-3,33.67036,R,ugm-3,90.93215,R,ugm-3,2.500,R,ugm-3 (Ref.eq)
11-01-2019,10:00,7.900,R,ugm-3 (FIDAS),32.99530,R,ugm-3,34.42621,R,ugm-3,85.01831,R,ugm-3,4.363,R,ugm-3 (Ref.eq)
11-01-2019,11:00,7.100,R,ugm-3 (FIDAS),30.37831,R,ugm-3,35.29206,R,ugm-3,81.87149,R,ugm-3,3.939,R,ugm-3 (Ref.eq)
11-01-2019,12:00,10.250,R,ugm-3 (FIDAS),33.80869,R,ugm-3,33.61308,R,ugm-3,85.45235,R,ugm-3,5.637,R,ugm-3 (Ref.eq)
11-01-2019,13:00,14.600,R,ugm-3 (FIDAS),40.88164,R,ugm-3,44.85002,R,ugm-3,107.53432,R,ugm-3,4.646,R,ugm-3 (Ref.eq)
11-01-2019,14:00,7.875,R,ugm-3 (FIDAS),23.76511,R,ugm-3,33.55022,R,ugm-3,69.98954,R,ugm-3,3.019,R,ugm-3 (Ref.eq)
11-01-2019,15:00,9.825,R,ugm-3 (FIDAS),26.34673,R,ugm-3,39.08649,R,ugm-3,79.48425,R,ugm-3,4.387,R,ugm-3 (Ref.eq)
11-01-2019,16:00,9.575,R,ugm-3 (FIDAS),28.29179,R,ugm-3,27.64025,R,ugm-3,71.02040,R,ugm-3,2.524,R,ugm-3 (Ref.eq)
11-01-2019,17:00,5.425,R,ugm-3 (FIDAS),31.96973,R,ugm-3,37.02960,R,ugm-3,86.04916,R,ugm-3,3.042,R,ugm-3 (Ref.eq)
11-01-2019,18:00,4.125,R,ugm-3 (FIDAS),31.29780,R,ugm-3,31.49496,R,ugm-3,79.48425,R,ugm-3,2.759,R,ugm-3 (Ref.eq)
11-01-2019,19:00,2.650,R,ugm-3 (FIDAS),23.58828,R,ugm-3,14.12662,R,ugm-3,50.29481,R,ugm-3,1.863,R,ugm-3 (Ref.eq)
11-01-2019,20:00,3.125,R,ugm-3 (FIDAS),11.24599,R,ugm-3,10.86072,R,ugm-3,28.10433,R,ugm-3,2.241,R,ugm-3 (Ref.eq)
11-01-2019,21:00,3.275,R,ugm-3 (FIDAS),6.36565,R,ugm-3,5.64802,R,ugm-3,15.40855,R,ugm-3,2.618,R,ugm-3 (Ref.eq)
11-01-2019,22:00,1.375,R,ugm-3 (FIDAS),3.67793,R,ugm-3,2.60741,R,ugm-3,8.24683,R,ugm-3,1.061,R,ugm-3 (Ref.eq)
11-01-2019,23:00,1.250,R,ugm-3 (FIDAS),1.76824,R,ugm-3,2.55152,R,ugm-3,5.26278,R,ugm-3,0.802,R,ugm-3 (Ref.eq)
11-01-2019,24:00,3.975,R,ugm-3 (FIDAS),1.69751,R,ugm-3,2.55146,R,ugm-3,5.15427,R,ugm-3,1.958,R,ugm-3 (Ref.eq)
12-01-2019,01:00,6.275,R,ugm-3 (FIDAS),0.98978,R,ugm-3,0.94101,R,ugm-3,2.45866,R,ugm-3,3.349,R,ugm-3 (Ref.eq)
12-01-2019,02:00,3.025,R,ugm-3 (FIDAS),0.94265,R,ugm-3,0.65171,R,ugm-3,2.09709,R,ugm-3,1.651,R,ugm-3 (Ref.eq)
12-01-2019,03:00,3.525,R,ugm-3 (FIDAS),0.63629,R,ugm-3,0.92260,R,ugm-3,1.89823,R,ugm-3,1.934,R,ugm-3 (Ref.eq)
12-01-2019,04:00,3.850,R,ugm-3 (FIDAS),1.13118,R,ugm-3,0.16377,R,ugm-3,1.89823,R,ugm-3,2.170,R,ugm-3 (Ref.eq)
12-01-2019,05:00,3.925,R,ugm-3 (FIDAS),0.35350,R,ugm-3,0.32574,R,ugm-3,0.86776,R,ugm-3,2.123,R,ugm-3 (Ref.eq)
12-01-2019,06:00,2.875,R,ugm-3 (FIDAS),0.84839,R,ugm-3,0.86856,R,ugm-3,2.16940,R,ugm-3,1.557,R,ugm-3 (Ref.eq)
12-01-2019,07:00,3.875,R,ugm-3 (FIDAS),1.34328,R,ugm-3,1.30291,R,ugm-3,3.36257,R,ugm-3,2.170,R,ugm-3 (Ref.eq)
12-01-2019,08:00,4.300,R,ugm-3 (FIDAS),2.93400,R,ugm-3,4.88392,R,ugm-3,9.38266,R,ugm-3,2.193,R,ugm-3 (Ref.eq)
12-01-2019,09:00,2.875,R,ugm-3 (FIDAS),6.43360,R,ugm-3,5.42957,R,ugm-3,15.29428,R,ugm-3,1.627,R,ugm-3 (Ref.eq)
12-01-2019,10:00,5.425,R,ugm-3 (FIDAS),5.05497,R,ugm-3,4.88592,R,ugm-3,12.63676,R,ugm-3,3.349,R,ugm-3 (Ref.eq)